Location: Batang Balui
(2.7000°N, 113.7833°E)
Time: 04:40:09
(UTC+00:00)

SJ 16-02 - Pass Details

Date: 08 February 2023
Orbit: 601 x 611 km, 75.0° (Epoch: 26 March)

Event Time Altitude Azimuth Distance (km) Brightness Sun altitude
Rises 12:11:02 0° 215° (SW) 2,870 5.5 -22.9°
Reaches altitude 10° 12:13:39 10° 229° (SW) 1,962 4.8 -23.5°
Maximum altitude 12:17:07 23° 282° (WNW) 1,304 3.6 -24.4°
Drops below altitude 10° 12:20:34 10° 334° (NNW) 1,951 4.0 -25.2°
Enters shadow 12:22:18 - 346° (NNW) 2,539 4.5 -25.6°
